User: anonymous   Login
Location: Ch�tillon
(48.8024°N, 2.2935°E)
Time: 02:46:17
(UTC+00:00)
Language:

Cosmos 2263 Rocket - Orbit

View from above orbital plane
View from above orbital plane
View from above satellite
View from above satellite

Ground track
Ground track

The orbit data is extracted from the following two-line orbital elements,

1 22803U 93059B   22026.79040057  .00000216  00000-0  13153-3 0  9990
2 22803  70.9910 299.3719 0018129 333.0115  27.0064 14.16849602466893
Epoch (UTC): 26 January 2022 18:58:10
Eccentricity: 0.0018129
inclination: 70.9910°
perigee height: 823 km
apogee height: 849 km
right ascension of ascending node: 299.3719°
argument of perigee: 333.0115°
revolutions per day: 14.16849602
mean anomaly at epoch: 27.0064°
orbit number at epoch: 46689

The dashed part of the orbit path shows where the satellite is in the earth's shadow,  

DLR